Project,Study,Ord_Occ,Event_Num,Cast_ID,Date_Time_UTC,Date_Time_PST,Lat_Dec,Lon_Dec,Sta_ID,Line,Sta,Depth,Pressure,PrQ,Temp1,Temp1Q,Temp2,Temp2Q,TempAve,Salt1,Salt1Q,Salt1_Corr,Salt2,Salt2Q,Salt2_Corr,SaltAve_Corr,Ox1,Ox1Q,Ox1_CruiseCorr,Ox1_StaCorr,Ox2,Ox2Q,Ox2_CruiseCorr,Ox2_StaCorr,OxAve_StaCorr,Ox1uM,Ox1uM_CruiseCorr,Ox1uM_StaCorr,Ox2uM,Ox2uM_CruiseCorr,Ox2uM_StaCorr,OxAveuM_StaCorr,FluorV,FluorQ,EstChl_CruiseCorr,EstChl_StaCorr,ISUSV,ISUSQ,EstNO3_CruiseCorr,EstNO3_StaCorr,SigThetaTS1,SigThetaTS1Q,SigThetaTS2,SigThetaTS2Q,BAT,XMiss,TransQ,pH,pHQ,SPAR,SPARQ,PAR,PARQ,PoT1,PoT2,DynHt,SVA,OxSat1,OxSat2,BTL_Depth,BTL_Temp,SaltB,OxB,OxBuM,Chl-a,Phaeo,NO3,NO2,NH4,PO4,SIL
CalCOFI,2007SR,030,31,2007_030u,19-Jul-2020 04:10:33,18-Jul-2020 20:10:33,33.48438,-117.76656,090.0 028.0,090.0,028.0,52.000,52.377,,11.1089,,11.1097,,11.1093,33.7039,,33.7041,33.7069,,33.7085,33.7063,3.0597,,3.1794,3.2718,3.7223,,4.9450,4.4540,3.8629,133.218,138.5782,142.8498,162.065,160.2874,194.0706,168.4602,0.0514,,0.1797,0.5702,-99.0,,-99.0,-99.0,25.7479,,25.7501,,0.7976,81.9219,,7.804,,1.9043E+00,,1.0000E-12,,11.1026,11.1034,0.1426,,49.214,59.874,,,,,,,,,,,,
CalCOFI,2007SR,030,31,2007_030u,19-Jul-2020 04:11:42,18-Jul-2020 20:11:42,33.48438,-117.76656,090.0 028.0,090.0,028.0,51.000,51.371,,11.1459,,11.1466,,11.1463,33.7008,,33.7010,33.7019,,33.7035,33.7023,3.0501,,3.1693,3.2617,3.4902,,4.3910,3.6008,3.4313,132.799,138.1408,142.4103,151.963,159.2625,157.0889,149.7496,0.0678,,0.3724,0.6983,-99.0,,-99.0,-99.0,25.7388,,25.7395,,0.8069,81.7325,,7.795,,1.9043E+00,,1.0000E-12,,11.1396,11.1403,0.1460,,49.097,56.183,51,11.146,33.7044,3.141,137.08,0.233,0.250,16.70,0.057,0.23,1.46,16.91
CalCOFI,2007SR,030,31,2007_030u,19-Jul-2020 04:11:53,18-Jul-2020 20:11:53,33.48438,-117.76656,090.0 028.0,090.0,028.0,50.000,50.363,,11.1208,,11.1178,,11.1193,33.7026,,33.7028,33.7045,,33.7061,33.7045,3.0604,,3.1801,3.2725,3.4724,,4.3485,3.5353,3.4039,133.245,138.6064,142.8782,151.184,160.3534,154.2371,148.5577,0.0641,,0.3289,0.6694,-99.0,,-99.0,-99.0,25.7447,,25.7467,,0.8064,81.7432,,7.794,,1.9043E+00,,1.0000E-12,,11.1147,11.1117,0.1468,,49.236,55.862,,,,,,,,,,,,
CalCOFI,2007SR,030,31,2007_030u,19-Jul-2020 04:11:55,18-Jul-2020 20:11:55,33.48438,-117.76656,090.0 028.0,090.0,028.0,49.000,49.356,,11.1524,,11.1606,,11.1565,33.6991,,33.6993,33.7003,,33.7019,33.7006,3.0768,,3.1972,3.2897,3.4638,,4.3279,3.5037,3.3967,133.964,139.3569,143.6324,150.812,162.1120,152.8753,148.2539,0.0639,,0.3266,0.6678,-99.0,,-99.0,-99.0,25.7362,,25.7357,,0.7915,82.0468,,7.794,,1.9043E+00,,1.0000E-12,,11.1464,11.1546,0.1468,,49.533,55.773,,,,,,,,,,,,
CalCOFI,2007SR,030,31,2007_030u,19-Jul-2020 04:12:00,18-Jul-2020 20:12:00,33.48438,-117.76656,090.0 028.0,090.0,028.0,48.000,48.348,,11.1829,,11.1838,,11.1834,33.6950,,33.6952,33.6961,,33.6977,33.6965,3.1032,,3.2248,3.3174,3.4532,,4.3026,3.4648,3.3911,135.115,140.5584,144.8397,150.354,164.9271,151.1986,148.0192,0.0668,,0.3607,0.6905,-99.0,,-99.0,-99.0,25.7275,,25.7283,,0.7786,82.3124,,7.795,,1.9043E+00,,1.0000E-12,,11.1770,11.1780,0.1468,,49.990,55.629,,,,,,,,,,,,
CalCOFI,2007SR,030,31,2007_030u,19-Jul-2020 04:12:02,18-Jul-2020 20:12:02,33.48438,-117.76656,090.0 028.0,090.0,028.0,47.000,47.341,,11.1918,,11.2023,,11.1971,33.6945,,33.6947,33.6955,,33.6971,33.6959,3.1378,,3.2610,3.3537,3.4494,,4.2936,3.4508,3.4023,136.618,142.1274,146.4163,150.189,168.6033,150.5946,148.5055,0.0632,,0.3183,0.6623,-99.0,,-99.0,-99.0,25.7255,,25.7244,,0.7582,82.7330,,7.795,,1.9043E+00,,1.0000E-12,,11.1860,11.1965,0.1468,,50.555,55.590,,,,,,,,,,,,
CalCOFI,2007SR,030,31,2007_030u,19-Jul-2020 04:12:05,18-Jul-2020 20:12:05,33.48438,-117.76656,090.0 028.0,090.0,028.0,46.000,46.334,,11.2464,,11.2531,,11.2498,33.6875,,33.6877,33.6883,,33.6899,33.6888,3.1306,,3.2535,3.3462,3.4413,,4.2742,3.4210,3.3836,136.309,141.8049,146.0921,149.835,167.8475,149.2986,147.6954,0.0731,,0.4347,0.7397,-99.0,,-99.0,-99.0,25.7101,,25.7096,,0.7537,82.8252,,7.798,,1.9043E+00,,1.0000E-12,,11.2408,11.2474,0.1468,,50.496,55.515,,,,,,,,,,,,
CalCOFI,2007SR,030,31,2007_030u,19-Jul-2020 04:12:09,18-Jul-2020 20:12:09,33.48438,-117.76656,090.0 028.0,090.0,028.0,45.000,45.326,,11.2630,,11.2622,,11.2626,33.6853,,33.6855,33.6867,,33.6883,33.6869,3.1303,,3.2532,3.3459,3.4377,,4.2656,3.4078,3.3769,136.297,141.7923,146.0796,149.679,167.8181,148.7275,147.4036,0.0706,,0.4053,0.7201,-99.0,,-99.0,-99.0,25.7054,,25.7067,,0.7601,82.6947,,7.799,,1.9043E+00,,1.0000E-12,,11.2575,11.2566,0.1468,,50.509,55.468,,,,,,,,,,,,
CalCOFI,2007SR,030,31,2007_030u,19-Jul-2020 04:12:13,18-Jul-2020 20:12:13,33.48438,-117.76656,090.0 028.0,090.0,028.0,44.000,44.319,,11.2952,,11.3016,,11.2984,33.6824,,33.6826,33.6838,,33.6854,33.6840,3.1635,,3.2878,3.3807,3.4294,,4.2458,3.3773,3.3790,137.744,143.3029,147.5974,149.319,171.3573,147.4096,147.5035,0.0725,,0.4277,0.7350,-99.0,,-99.0,-99.0,25.6973,,25.6973,,0.7679,82.5328,,7.802,,1.9043E+00,,1.0000E-12,,11.2898,11.2961,0.1468,,51.079,55.379,,,,,,,,,,,,
CalCOFI,2007SR,030,31,2007_030u,19-Jul-2020 04:12:17,18-Jul-2020 20:12:17,33.48438,-117.76656,090.0 028.0,090.0,028.0,43.000,43.312,,11.3358,,11.3404,,11.3381,33.6767,,33.6769,33.6779,,33.6795,33.6782,3.1651,,3.2895,3.3824,3.4228,,4.2301,3.3530,3.3677,137.816,143.3780,147.6729,149.032,171.5334,146.3590,147.0160,0.0781,,0.4936,0.7787,-99.0,,-99.0,-99.0,25.6855,,25.6856,,0.7677,82.5359,,7.803,,1.9043E+00,,1.0000E-12,,11.3305,11.3350,0.1468,,51.147,55.315,,,,,,,,,,,,
CalCOFI,2007SR,030,31,2007_030u,19-Jul-2020 04:12:22,18-Jul-2020 20:12:22,33.48438,-117.76656,090.0 028.0,090.0,028.0,42.000,42.304,,11.3452,,11.3448,,11.3450,33.6752,,33.6754,33.6767,,33.6783,33.6769,3.1759,,3.3008,3.3937,3.4218,,4.2277,3.3493,3.3715,138.284,143.8666,148.1638,148.990,172.6781,146.2052,147.1845,0.0772,,0.4830,0.7717,-99.0,,-99.0,-99.0,25.6826,,25.6838,,0.7659,82.5737,,7.807,,1.9043E+00,,1.0000E-12,,11.3400,11.3396,0.1468,,51.330,55.305,,,,,,,,,,,,
CalCOFI,2007SR,030,31,2007_030u,19-Jul-2020 04:13:10,18-Jul-2020 20:13:10,33.48440,-117.76655,090.0 028.0,090.0,028.0,41.000,41.297,,11.3532,,11.3545,,11.3539,33.6734,,33.6736,33.6746,,33.6762,33.6749,3.1868,,3.3122,3.4052,3.3916,,4.1556,3.2383,3.3218,138.761,144.3645,148.6642,147.676,173.8447,141.3949,145.0296,0.0778,,0.4900,0.7764,-99.0,,-99.0,-99.0,25.6797,,25.6804,,0.7687,82.5171,,7.816,,1.9043E+00,,1.0000E-12,,11.3481,11.3494,0.1510,,51.515,54.827,41,11.353,33.6709,3.308,144.38,0.275,0.305,15.11,0.063,0.17,1.35,15.23
CalCOFI,2007SR,030,31,2007_030u,19-Jul-2020 04:13:40,18-Jul-2020 20:13:40,33.48439,-117.76656,090.0 028.0,090.0,028.0,40.000,40.290,,11.3722,,11.3742,,11.3732,33.6707,,33.6709,33.6718,,33.6734,33.6722,3.2094,,3.3358,3.4289,3.3722,,4.1093,3.1670,3.2980,139.745,145.3917,149.6963,146.831,176.2515,138.3015,143.9989,0.0776,,0.4877,0.7748,-99.0,,-99.0,-99.0,25.6741,,25.6746,,0.7713,82.4636,,7.815,,1.9043E+00,,1.0000E-12,,11.3673,11.3692,0.1537,,51.901,54.535,,,,,,,,,,,,
CalCOFI,2007SR,030,31,2007_030u,19-Jul-2020 04:13:46,18-Jul-2020 20:13:46,33.48440,-117.76656,090.0 028.0,090.0,028.0,39.000,39.282,,11.3767,,11.3769,,11.3768,33.6698,,33.6700,33.6709,,33.6725,33.6713,3.2240,,3.3511,3.4442,3.3682,,4.0997,3.1523,3.2983,140.378,146.0525,150.3603,146.661,177.7997,137.6792,144.0198,0.0783,,0.4959,0.7803,-99.0,,-99.0,-99.0,25.6725,,25.6734,,0.7713,82.4622,,7.817,,1.9043E+00,,1.0000E-12,,11.3718,11.3721,0.1537,,52.140,54.474,,,,,,,,,,,,
CalCOFI,2007SR,030,31,2007_030u,19-Jul-2020 04:13:49,18-Jul-2020 20:13:49,33.48438,-117.76656,090.0 028.0,090.0,028.0,38.000,38.275,,11.3866,,11.3872,,11.3869,33.6669,,33.6671,33.6681,,33.6697,33.6684,3.2574,,3.3860,3.4793,3.3663,,4.0952,3.1453,3.3123,141.837,147.5755,151.8907,146.577,181.3682,137.3716,144.6312,0.0826,,0.5465,0.8139,-99.0,,-99.0,-99.0,25.6685,,25.6693,,0.7789,82.3063,,7.817,,1.9043E+00,,1.0000E-12,,11.3819,11.3825,0.1537,,52.692,54.454,,,,,,,,,,,,
CalCOFI,2007SR,030,31,2007_030u,19-Jul-2020 04:13:54,18-Jul-2020 20:13:54,33.48440,-117.76656,090.0 028.0,090.0,028.0,37.000,37.268,,11.3983,,11.3980,,11.3982,33.6637,,33.6639,33.6651,,33.6667,33.6653,3.2699,,3.3990,3.4924,3.3652,,4.0925,3.1413,3.3169,142.380,148.1424,152.4603,146.528,182.6963,137.1923,144.8263,0.0755,,0.4630,0.7584,-99.0,,-99.0,-99.0,25.6638,,25.6650,,0.7956,81.9644,,7.817,,1.9043E+00,,1.0000E-12,,11.3937,11.3934,0.1537,,52.905,54.447,,,,,,,,,,,,
CalCOFI,2007SR,030,31,2007_030u,19-Jul-2020 04:13:57,18-Jul-2020 20:13:57,33.48439,-117.76656,090.0 028.0,090.0,028.0,36.000,36.260,,11.4043,,11.4029,,11.4036,33.6620,,33.6622,33.6638,,33.6654,33.6638,3.2987,,3.4291,3.5226,3.3644,,4.0906,3.1383,3.3305,143.635,149.4525,153.7767,146.494,185.7659,137.0678,145.4223,0.0758,,0.4665,0.7608,-99.0,,-99.0,-99.0,25.6614,,25.6631,,0.8036,81.7991,,7.817,,1.9043E+00,,1.0000E-12,,11.3998,11.3985,0.1537,,53.378,54.440,,,,,,,,,,,,
CalCOFI,2007SR,030,31,2007_030u,19-Jul-2020 04:14:00,18-Jul-2020 20:14:00,33.48438,-117.76656,090.0 028.0,090.0,028.0,35.000,35.253,,11.4118,,11.4119,,11.4119,33.6595,,33.6597,33.6607,,33.6623,33.6610,3.3249,,3.4565,3.5501,3.3650,,4.0921,3.1405,3.3453,144.774,150.6415,154.9715,146.519,188.5517,137.1593,146.0654,0.0754,,0.4618,0.7576,-99.0,,-99.0,-99.0,25.6580,,25.6590,,0.8145,81.5779,,7.820,,1.9043E+00,,1.0000E-12,,11.4074,11.4076,0.1537,,53.809,54.458,,,,,,,,,,,,
CalCOFI,2007SR,030,31,2007_030u,19-Jul-2020 04:14:04,18-Jul-2020 20:14:04,33.48439,-117.76656,090.0 028.0,090.0,028.0,34.000,34.246,,11.4278,,11.4285,,11.4282,33.6573,,33.6575,33.6603,,33.6619,33.6597,3.4611,,3.5988,3.6931,3.3612,,4.0830,3.1266,3.4099,150.706,156.8339,161.1938,146.355,203.0605,136.5589,148.8764,0.0727,,0.4300,0.7365,-99.0,,-99.0,-99.0,25.6534,,25.6556,,0.8209,81.4464,,7.821,,1.9043E+00,,1.0000E-12,,11.4236,11.4243,0.1537,,56.031,54.416,,,,,,,,,,,,
CalCOFI,2007SR,030,31,2007_030u,19-Jul-2020 04:14:07,18-Jul-2020 20:14:07,33.48438,-117.76656,090.0 028.0,090.0,028.0,33.000,33.238,,11.5318,,11.5537,,11.5428,33.6419,,33.6421,33.6398,,33.6414,33.6418,3.4556,,3.5931,3.6873,3.3618,,4.0844,3.1288,3.4081,150.474,156.5917,160.9505,146.387,202.4931,136.6761,148.8133,0.0782,,0.4947,0.7795,-99.0,,-99.0,-99.0,25.6223,,25.6166,,0.7976,81.9230,,7.825,,1.9043E+00,,1.0000E-12,,11.5277,11.5495,0.1537,,56.061,54.563,,,,,,,,,,,,
CalCOFI,2007SR,030,31,2007_030u,19-Jul-2020 04:14:14,18-Jul-2020 20:14:14,33.48438,-117.76656,090.0 028.0,090.0,028.0,32.000,32.231,,11.5377,,11.5038,,11.5208,33.6441,,33.6443,33.6476,,33.6492,33.6468,3.5176,,3.6578,3.7524,3.3841,,4.1377,3.2108,3.4816,153.171,159.4071,163.7795,147.359,209.0896,140.2344,152.0070,0.0782,,0.4947,0.7795,-99.0,,-99.0,-99.0,25.6229,,25.6319,,0.8014,81.8447,,7.836,,1.9043E+00,,1.0000E-12,,11.5336,11.4998,0.1537,,57.074,54.871,,,,,,,,,,,,
CalCOFI,2007SR,030,31,2007_030u,19-Jul-2020 04:14:54,18-Jul-2020 20:14:54,33.48438,-117.76656,090.0 028.0,090.0,028.0,31.000,31.224,,11.5947,,11.5801,,11.5874,33.6317,,33.6319,33.6361,,33.6377,33.6348,3.5041,,3.6437,3.7382,3.4385,,4.2675,3.4107,3.5745,152.587,158.7975,163.1669,149.727,207.6612,148.9033,156.0351,0.0842,,0.5653,0.8264,-99.0,,-99.0,-99.0,25.6028,,25.6089,,0.7856,82.1700,,7.870,,1.9043E+00,,1.0000E-12,,11.5908,11.5762,0.1566,,56.920,55.837,31,11.595,33.6207,3.732,162.92,0.342,0.330,13.11,0.102,0.39,1.22,13.02
CalCOFI,2007SR,030,31,2007_030u,19-Jul-2020 04:15:21,18-Jul-2020 20:15:21,33.48438,-117.76656,090.0 028.0,090.0,028.0,30.000,30.216,,11.6969,,11.7008,,11.6989,33.6202,,33.6204,33.6210,,33.6226,33.6215,3.6461,,3.7921,3.8872,3.4513,,4.2981,3.4578,3.6725,158.775,165.2571,169.6578,150.291,222.7961,150.9680,160.3129,0.0822,,0.5418,0.8108,-99.0,,-99.0,-99.0,25.5749,,25.5748,,0.7864,82.1518,,7.868,,1.9043E+00,,1.0000E-12,,11.6931,11.6971,0.1582,,59.349,56.184,,,,,,,,,,,,
CalCOFI,2007SR,030,31,2007_030u,19-Jul-2020 04:15:22,18-Jul-2020 20:15:22,33.48438,-117.76656,090.0 028.0,090.0,028.0,29.000,29.209,,11.7653,,11.7625,,11.7639,33.6110,,33.6112,33.6129,,33.6145,33.6129,3.7535,,3.9043,4.0000,3.4501,,4.2952,3.4534,3.7267,163.452,170.1394,174.5637,150.243,234.2354,150.7923,162.6780,0.0989,,0.7384,0.9412,-99.0,,-99.0,-99.0,25.5550,,25.5570,,0.7682,82.5258,,7.867,,1.9043E+00,,1.0000E-12,,11.7617,11.7588,0.1579,,61.182,56.235,,,,,,,,,,,,
CalCOFI,2007SR,030,31,2007_030u,19-Jul-2020 04:15:26,18-Jul-2020 20:15:26,33.48438,-117.76656,090.0 028.0,090.0,028.0,28.000,28.202,,11.8462,,11.8552,,11.8507,33.6012,,33.6014,33.6024,,33.6040,33.6027,3.7931,,3.9457,4.0415,3.4548,,4.3064,3.4706,3.7561,165.182,171.9454,176.3784,150.449,238.4667,151.5464,163.9624,0.0811,,0.5289,0.8022,-99.0,,-99.0,-99.0,25.5323,,25.5315,,0.7492,82.9186,,7.869,,1.9043E+00,,1.0000E-12,,11.8426,11.8516,0.1579,,61.930,56.417,,,,,,,,,,,,
CalCOFI,2007SR,030,31,2007_030u,19-Jul-2020 04:15:31,18-Jul-2020 20:15:31,33.48438,-117.76656,090.0 028.0,090.0,028.0,27.000,27.195,,11.8833,,11.8859,,11.8846,33.5966,,33.5968,33.5979,,33.5995,33.5982,3.8300,,3.9843,4.0803,3.4683,,4.3387,3.5203,3.8003,166.789,173.6229,178.0641,151.040,242.3972,153.7099,165.8870,0.0887,,0.6183,0.8615,-99.0,,-99.0,-99.0,25.5218,,25.5223,,0.7424,83.0605,,7.873,,1.9043E+00,,1.0000E-12,,11.8799,11.8824,0.1579,,62.579,56.673,,,,,,,,,,,,
CalCOFI,2007SR,030,31,2007_030u,19-Jul-2020 04:15:34,18-Jul-2020 20:15:34,33.48438,-117.76656,090.0 028.0,090.0,028.0,26.000,26.187,,11.9347,,11.9445,,11.9396,33.5905,,33.5907,33.5911,,33.5927,33.5917,3.8739,,4.0301,4.1263,3.4746,,4.3537,3.5434,3.8349,168.707,175.6251,180.0759,151.317,247.0884,154.7240,167.4000,0.0915,,0.6513,0.8834,-99.0,,-99.0,-99.0,25.5074,,25.5060,,0.7402,83.1059,,7.878,,1.9043E+00,,1.0000E-12,,11.9313,11.9412,0.1579,,63.363,56.843,,,,,,,,,,,,
CalCOFI,2007SR,030,31,2007_030u,19-Jul-2020 04:15:38,18-Jul-2020 20:15:38,33.48438,-117.76656,090.0 028.0,090.0,028.0,25.000,25.180,,12.0505,,12.0645,,12.0575,33.5794,,33.5796,33.5816,,33.5832,33.5814,3.9388,,4.0980,4.1945,3.4783,,4.3625,3.5570,3.8758,171.535,178.5773,183.0424,151.484,254.0053,155.3353,169.1889,0.0919,,0.6560,0.8865,-99.0,,-99.0,-99.0,25.4769,,25.4760,,0.7535,82.8306,,7.881,,1.9043E+00,,1.0000E-12,,12.0472,12.0613,0.1579,,64.576,57.045,,,,,,,,,,,,
CalCOFI,2007SR,030,31,2007_030u,19-Jul-2020 04:15:42,18-Jul-2020 20:15:42,33.48438,-117.76656,090.0 028.0,090.0,028.0,24.000,24.173,,12.1517,,12.1519,,12.1518,33.5746,,33.5748,33.5756,,33.5772,33.5760,4.0331,,4.1965,4.2934,3.4887,,4.3874,3.5953,3.9444,175.648,182.8708,187.3567,151.940,264.0651,157.0047,172.1807,0.0969,,0.7148,0.9256,-99.0,,-99.0,-99.0,25.4540,,25.4547,,0.7576,82.7453,,7.884,,1.9043E+00,,1.0000E-12,,12.1486,12.1488,0.1579,,66.261,57.318,,,,,,,,,,,,
CalCOFI,2007SR,030,31,2007_030u,19-Jul-2020 04:15:46,18-Jul-2020 20:15:46,33.48438,-117.76656,090.0 028.0,090.0,028.0,23.000,23.166,,12.3118,,12.2987,,12.3053,33.5723,,33.5725,33.5735,,33.5751,33.5738,4.1501,,4.3187,4.4162,3.4958,,4.4043,3.6214,4.0188,180.747,188.1937,192.7053,152.252,276.5365,158.1469,175.4261,0.1188,,0.9729,1.0967,-99.0,,-99.0,-99.0,25.4216,,25.4250,,0.7691,82.5082,,7.889,,1.9043E+00,,1.0000E-12,,12.3088,12.2957,0.1579,,68.412,57.610,,,,,,,,,,,,
CalCOFI,2007SR,030,31,2007_030u,19-Jul-2020 04:15:52,18-Jul-2020 20:15:52,33.48438,-117.76656,090.0 028.0,090.0,028.0,22.000,22.158,,12.6413,,12.6448,,12.6431,33.5641,,33.5643,33.5701,,33.5717,33.5680,4.2020,,4.3730,4.4707,3.5015,,4.4179,3.6423,4.0565,183.020,190.5665,195.0895,152.511,282.0960,159.0950,177.0923,0.2121,,2.0755,1.8255,-99.0,,-99.0,-99.0,25.3515,,25.3554,,0.8514,80.8317,,7.896,,1.9043E+00,,1.0000E-12,,12.6384,12.6419,0.1579,,69.739,58.120,,,,,,,,,,,,
CalCOFI,2007SR,030,31,2007_030u,19-Jul-2020 04:16:37,18-Jul-2020 20:16:37,33.48438,-117.76656,090.0 028.0,090.0,028.0,21.000,21.151,,11.9364,,11.9962,,11.9663,33.5789,,33.5791,33.5771,,33.5787,33.5789,3.8648,,4.0206,4.1168,3.6894,,4.8665,4.3330,4.2249,168.310,175.2107,179.6595,160.675,246.1174,188.9820,184.3208,0.1724,,1.6057,1.5154,-99.0,,-99.0,-99.0,25.4988,,25.4860,,0.7590,82.7075,,7.940,,1.9043E+00,,1.0000E-12,,11.9337,11.9935,0.1608,,63.182,60.433,21,11.936,33.5612,4.387,191.50,3.757,0.348,2.78,0.077,0.25,0.74,8.13
CalCOFI,2007SR,030,31,2007_030u,19-Jul-2020 04:16:44,18-Jul-2020 20:16:44,33.48438,-117.76656,090.0 028.0,090.0,028.0,20.000,20.144,,12.6954,,12.7836,,12.7395,33.5694,,33.5696,33.5691,,33.5707,33.5702,4.4767,,4.6600,4.7590,3.5908,,4.6311,3.9706,4.3648,194.987,203.0588,207.6423,156.404,311.3655,173.3466,190.4945,0.3303,,3.4799,2.7489,-99.0,,-99.0,-99.0,25.3450,,25.3276,,0.8837,80.1807,,7.942,,1.9043E+00,,1.0000E-12,,12.6927,12.7809,0.1617,,74.390,59.773,,,,,,,,,,,,
CalCOFI,2007SR,030,31,2007_030u,19-Jul-2020 04:16:48,18-Jul-2020 20:16:48,33.48438,-117.76656,090.0 028.0,090.0,028.0,19.000,19.137,,13.0462,,13.1443,,13.0953,33.5639,,33.5641,33.5657,,33.5673,33.5657,4.9521,,5.1567,5.2580,3.5811,,4.6080,3.9349,4.5965,215.709,224.6905,229.3786,155.993,362.0486,171.8420,200.6103,0.5698,,6.3517,4.6198,-99.0,,-99.0,-99.0,25.2717,,25.2537,,0.9855,78.1654,,7.944,,1.9043E+00,,1.0000E-12,,13.0436,13.1417,0.1618,,82.880,60.056,,,,,,,,,,,,
CalCOFI,2007SR,030,31,2007_030u,19-Jul-2020 04:16:51,18-Jul-2020 20:16:51,33.48438,-117.76656,090.0 028.0,090.0,028.0,18.000,18.129,,13.3728,,13.3938,,13.3833,33.5573,,33.5575,33.5554,,33.5570,33.5573,5.1320,,5.3447,5.4468,3.5954,,4.6421,3.9875,4.7172,223.561,232.8872,237.6149,156.627,381.2535,174.1630,205.8890,0.4448,,4.8485,3.6433,-99.0,,-99.0,-99.0,25.2012,,25.1955,,1.0507,76.9003,,7.954,,1.9043E+00,,1.0000E-12,,13.3703,13.3913,0.1618,,86.468,60.603,,,,,,,,,,,,
CalCOFI,2007SR,030,31,2007_030u,19-Jul-2020 04:16:54,18-Jul-2020 20:16:54,33.48438,-117.76656,090.0 028.0,090.0,028.0,17.000,17.122,,13.4769,,13.4810,,13.4790,33.5472,,33.5474,33.5470,,33.5486,33.5480,5.2831,,5.5026,5.6054,3.6405,,4.7498,4.1533,4.8794,230.150,239.7655,244.5264,158.591,397.3692,181.3529,212.9397,0.3980,,4.2881,3.2777,-99.0,,-99.0,-99.0,25.1724,,25.1714,,1.0714,76.5026,,7.971,,1.9043E+00,,1.0000E-12,,13.4746,13.4787,0.1618,,89.196,61.468,,,,,,,,,,,,
CalCOFI,2007SR,030,31,2007_030u,19-Jul-2020 04:16:57,18-Jul-2020 20:16:57,33.48438,-117.76656,090.0 028.0,090.0,028.0,16.000,16.115,,13.5381,,13.5352,,13.5367,33.5432,,33.5434,33.5441,,33.5457,33.5446,5.3363,,5.5582,5.6613,3.6819,,4.8486,4.3055,4.9834,232.472,242.1894,246.9621,160.400,403.0485,187.9753,217.4687,0.4323,,4.6987,3.5456,-99.0,,-99.0,-99.0,25.1568,,25.1581,,1.0745,76.4430,,7.988,,1.9043E+00,,1.0000E-12,,13.5359,13.5329,0.1618,,90.205,62.236,,,,,,,,,,,,
CalCOFI,2007SR,030,31,2007_030u,19-Jul-2020 04:17:00,18-Jul-2020 20:17:00,33.48438,-117.76656,090.0 028.0,090.0,028.0,15.000,15.108,,13.5887,,13.5957,,13.5922,33.5414,,33.5416,33.5432,,33.5448,33.5432,5.5219,,5.7521,5.8561,3.7370,,4.9801,4.5080,5.1821,240.561,250.6335,255.4470,162.799,422.8331,196.7576,226.1023,0.4246,,4.6065,3.4855,-99.0,,-99.0,-99.0,25.1451,,25.1450,,1.0762,76.4110,,8.006,,1.9043E+00,,1.0000E-12,,13.5866,13.5936,0.1618,,93.439,63.244,,,,,,,,,,,,
CalCOFI,2007SR,030,31,2007_030u,19-Jul-2020 04:17:05,18-Jul-2020 20:17:05,33.48438,-117.76656,090.0 028.0,090.0,028.0,14.000,14.100,,13.7522,,13.7574,,13.7548,33.5402,,33.5404,33.5420,,33.5436,33.5420,5.5055,,5.7350,5.8389,3.7964,,5.1219,4.7264,5.2827,239.852,249.8934,254.7033,165.394,421.0989,206.2575,230.4804,0.4456,,4.8581,3.6495,-99.0,,-99.0,-99.0,25.1107,,25.1110,,1.0297,77.3063,,8.022,,1.9043E+00,,1.0000E-12,,13.7502,13.7555,0.1618,,93.469,64.462,,,,,,,,,,,,
CalCOFI,2007SR,030,31,2007_030u,19-Jul-2020 04:17:11,18-Jul-2020 20:17:11,33.48438,-117.76656,090.0 028.0,090.0,028.0,13.000,13.093,,13.7873,,13.8023,,13.7948,33.5425,,33.5427,33.5464,,33.5480,33.5454,5.6031,,5.8370,5.9413,3.8822,,5.3268,5.0417,5.4915,244.107,254.3352,259.1666,169.132,431.5061,219.9417,239.5542,0.3667,,3.9141,3.0332,-99.0,,-99.0,-99.0,25.1052,,25.1051,,1.0178,77.5356,,8.038,,1.9043E+00,,1.0000E-12,,13.7854,13.8004,0.1618,,95.197,65.980,,,,,,,,,,,,
CalCOFI,2007SR,030,31,2007_030u,19-Jul-2020 04:17:15,18-Jul-2020 20:17:15,33.48438,-117.76656,090.0 028.0,090.0,028.0,12.000,12.086,,13.8772,,13.9053,,13.8913,33.5356,,33.5358,33.5368,,33.5384,33.5371,5.6193,,5.8539,5.9583,3.9334,,5.4490,5.2300,5.5942,244.816,255.0753,259.9103,171.370,433.2402,228.1346,244.0225,0.2836,,2.9240,2.3840,-99.0,,-99.0,-99.0,25.0814,,25.0765,,0.9871,78.1325,,8.049,,1.9043E+00,,1.0000E-12,,13.8755,13.9036,0.1618,,95.642,66.988,,,,,,,,,,,,
CalCOFI,2007SR,030,31,2007_030u,19-Jul-2020 04:17:53,18-Jul-2020 20:17:53,33.48438,-117.76656,090.0 028.0,090.0,028.0,11.000,11.079,,13.5931,,13.5671,,13.5801,33.5399,,33.5401,33.5400,,33.5416,33.5409,5.2934,,5.5134,5.6162,4.1543,,5.9764,6.0420,5.8291,230.605,240.2405,245.0037,180.979,398.4821,263.3116,254.1577,0.4081,,4.4090,3.3566,-99.0,,-99.0,-99.0,25.1429,,25.1484,,1.0291,77.3166,,8.057,,1.9043E+00,,1.0000E-12,,13.5916,13.5655,0.1654,,89.574,70.268,11,13.593,33.5465,5.715,249.47,2.791,0.429,0.12,0.032,0.14,0.36,2.78
CalCOFI,2007SR,030,31,2007_030u,19-Jul-2020 04:18:12,18-Jul-2020 20:18:12,33.48438,-117.76656,090.0 028.0,090.0,028.0,10.000,10.072,,14.0958,,14.1456,,14.1207,33.5666,,33.5668,33.5743,,33.5759,33.5714,5.6180,,5.8525,5.9569,4.1128,,5.8773,5.8894,5.9232,244.765,255.0221,259.8568,179.190,433.1154,256.7623,258.3096,0.3218,,3.3786,2.6825,-99.0,,-99.0,-99.0,25.0593,,25.0548,,1.0252,77.3918,,8.067,,1.9043E+00,,1.0000E-12,,14.0943,14.1441,0.1664,,96.063,70.398,,,,,,,,,,,,
CalCOFI,2007SR,030,31,2007_030u,19-Jul-2020 04:18:17,18-Jul-2020 20:18:17,33.48438,-117.76656,090.0 028.0,090.0,028.0,9.000,9.064,,14.7642,,14.8213,,14.7928,33.5729,,33.5731,33.5706,,33.5722,33.5727,5.9091,,6.1567,6.2625,4.0732,,5.7828,5.7439,6.0032,257.482,268.2974,273.1962,177.486,464.2194,250.5243,261.8603,0.2824,,2.9097,2.3747,-99.0,,-99.0,-99.0,24.9229,,24.9088,,1.0250,77.3942,,8.073,,1.9043E+00,,1.0000E-12,,14.7629,14.8200,0.1664,,102.423,70.674,,,,,,,,,,,,
CalCOFI,2007SR,030,31,2007_030u,19-Jul-2020 04:18:22,18-Jul-2020 20:18:22,33.48438,-117.76656,090.0 028.0,090.0,028.0,8.000,8.057,,16.6735,,16.9461,,16.8098,33.6662,,33.6664,33.6770,,33.6786,33.6725,6.2713,,6.5352,6.6426,3.9144,,5.4036,5.1601,5.9014,273.361,284.8734,289.8525,170.636,503.0572,225.4476,257.6501,0.2436,,2.4489,2.0716,-99.0,,-99.0,-99.0,24.5636,,24.5054,,1.1421,75.1682,,8.079,,1.9043E+00,,1.0000E-12,,16.6722,16.9448,0.1664,,112.879,70.828,,,,,,,,,,,,
CalCOFI,2007SR,030,31,2007_030u,19-Jul-2020 04:18:28,18-Jul-2020 20:18:28,33.48438,-117.76656,090.0 028.0,090.0,028.0,7.000,7.050,,18.3670,,18.2744,,18.3207,33.6054,,33.6056,33.5978,,33.5994,33.6025,6.0100,,6.2621,6.3684,3.8944,,5.3559,5.0866,5.7275,262.086,273.1035,278.0256,169.825,475.4801,222.4787,250.2522,0.2108,,2.0601,1.8153,-99.0,,-99.0,-99.0,24.1149,,24.1319,,1.2633,72.9194,,8.119,,1.9043E+00,,1.0000E-12,,18.3658,18.2732,0.1664,,111.744,72.275,,,,,,,,,,,,
CalCOFI,2007SR,030,31,2007_030u,19-Jul-2020 04:19:06,18-Jul-2020 20:19:06,33.48438,-117.76656,090.0 028.0,090.0,028.0,6.000,6.043,,18.7110,,18.7204,,18.7157,33.5859,,33.5861,33.5885,,33.5901,33.5881,5.9993,,6.2510,6.3572,4.1517,,5.9702,6.0324,6.1948,261.644,272.6421,277.5620,181.067,474.3991,263.6337,270.5979,0.1979,,1.9073,1.7146,-99.0,,-99.0,-99.0,24.0137,,24.0134,,1.3719,70.9586,,8.192,,1.9043E+00,,1.4227E-01,,18.7099,18.7194,0.1703,,112.246,77.686,6,18.711,33.5924,6.264,273.44,1.667,0.092,0.06,0.027,0.13,0.13,3.78
CalCOFI,2007SR,030,31,2007_030u,19-Jul-2020 04:19:22,18-Jul-2020 20:19:22,33.48438,-117.76656,090.0 028.0,090.0,028.0,5.000,5.036,,18.7701,,18.7528,,18.7615,33.5951,,33.5953,33.5945,,33.5961,33.5957,5.9904,,6.2417,6.3478,4.1622,,5.9952,6.0710,6.2094,261.259,272.2402,277.1581,181.524,473.4574,265.3067,271.2324,0.2089,,2.0376,1.8005,-99.0,,-99.0,-99.0,24.0059,,24.0097,,1.3610,71.1593,,8.181,,1.9043E+00,,8.0221E-02,,18.7692,18.7520,0.1709,,112.211,77.940,,,,,,,,,,,,